{"data":{"norad_id":65443,"intl_designator":"2025-194K","name":"STARLINK-34678","alt_names":[],"object_type":"PAYLOAD","status":"ACTIVE","operator":null,"country":"US","launch_date":"2025-09-03","launch_site_code":"AFWTR","launch_vehicle":null,"mission":null,"orbit_class":"UNKNOWN","rcs_meters":null,"size_class":null,"mass_kg":null,"dimensions":null,"purposes":["comms"],"wikipedia_slug":null,"has_3d_model":false,"image_url":null,"decayed_at":null,"tle_current":{"epoch":"2026-05-25T02:30:28.558080Z","epoch_age_seconds":56208,"freshness":"FRESH","line1":"1 65443U 25194K   26145.10449720  .00002883  00000+0  20378-3 0  9991","line2":"2 65443  97.4516 359.2999 0002234  82.7769 277.3712 15.05656995 41142","mean_motion":15.05656995,"eccentricity":0.0002234,"inclination_deg":97.4516,"raan_deg":359.2999,"arg_perigee_deg":82.7769,"mean_anomaly_deg":277.3712,"bstar":0.00020378,"rev_number":4114,"period_min":95.639312591245,"perigee_km":547.94206584892,"apogee_km":551.03732945743,"semimajor_km":6927.6266976532,"source":"CELESTRAK","updated_at":"2026-05-25T13:38:20.807596Z"}}}